Location: Angwan Shehu
(11.2514°N, 7.4613°E)
Time: 19:39:15
(UTC+00:00)

Cosmos 2297 Rocket - Pass Details

Date: 14 November 2019
Orbit: 840 x 843 km, 71.0° (Epoch: 06 December)

Event Time Altitude Azimuth Distance (km) Brightness Sun altitude
Rises 17:20:04 0° 12° (NNE) 3,388 5.0 -4.8°
Reaches altitude 10° 17:23:31 10° 33° (NNE) 2,454 4.2 -5.6°
Maximum altitude 17:26:51 16° 70° (ENE) 2,063 3.6 -6.4°
Drops below altitude 10° 17:30:11 10° 107° (ESE) 2,455 4.1 -7.2°
Sets 17:33:36 0° 128° (SE) 3,390 5.0 -8.0°
